EW5462 Weather Reports


Display with metric or nautical units.
time (UTC)temp
F
wind
direction
speed
MPH
gust
MPH
rain 1hr
in
rain 24hr
in
rain mn
in
humidity
%
barometer
mb
20260503060217 79 127 2.0 2.0 0.00 0.00 0.00 26 1007.6
20260503054216 79 136 3.0 4.0 0.00 0.00 0.00 24 1007.6
20260503053216 79 130 3.0 4.0 0.00 0.00 0.00 24 1007.5
20260503052217 79 135 4.0 6.0 0.00 0.00 0.00 22 1007.6
20260503051216 80 134 4.0 5.0 0.00 0.00 0.00 20 1007.6
20260503050217 80 130 3.0 5.0 0.00 0.00 0.00 20 1007.5
20260503045217 78 125 5.0 7.0 0.00 0.00 0.00 22 1007.5
20260503044217 80 0.0 0.0 0.00 0.00 0.00 21 1007.4
20260503043216 81 0.0 0.0 0.00 0.00 0.00 21 1007.3
20260503042217 81 0.0 0.0 0.00 0.00 0.00 21 1007.0
20260503040217 83 0.0 0.0 0.00 0.00 0.00 20 1006.7
20260503035216 86 232 3.0 4.0 0.00 0.00 0.00 17 1006.6
20260503034217 86 235 5.0 6.0 0.00 0.00 0.00 17 1006.6
20260503033217 86 235 4.0 5.0 0.00 0.00 0.00 18 1006.4
20260503032917 86 239 4.0 6.0 0.00 0.00 0.00 18 1006.4
20260503031917 87 240 4.0 5.0 0.00 0.00 0.00 18 1006.3
20260503030917 88 241 4.0 5.0 0.00 0.00 0.00 17 1006.1
20260503025917 89 231 5.0 6.0 0.00 0.00 0.00 16 1005.9
20260503025417 89 231 4.0 6.0 0.00 0.00 0.00 16 1005.9
20260503024416 87 216 4.0 5.0 0.00 0.00 0.00 18 1005.7
20260503023416 91 248 4.0 5.0 0.00 0.00 0.00 15 1005.4
20260503022417 91 255 3.0 4.0 0.00 0.00 0.00 14 1005.3
20260503021417 92 242 3.0 4.0 0.00 0.00 0.00 14 1005.2
20260503020517 92 257 2.0 3.0 0.00 0.00 0.00 14 1005.2
20260503015516 93 240 3.0 4.0 0.00 0.00 0.00 13 1005.2
20260503014516 94 225 3.0 4.0 0.00 0.00 0.00 12 1005.2
20260503013517 94 189 1.0 3.0 0.00 0.00 0.00 12 1005.1
20260503012517 95 214 2.0 3.0 0.00 0.00 0.00 12 1005.1
20260503011516 96 223 5.0 7.0 0.00 0.00 0.00 11 1005.0
20260503010517 97 215 4.0 6.0 0.00 0.00 0.00 12 1005.2
20260503005517 97 190 2.0 3.0 0.00 0.00 0.00 12 1005.1
20260503004516 97 262 4.0 4.0 0.00 0.00 0.00 11 1005.1
20260503004417 98 271 5.0 6.0 0.00 0.00 0.00 10 1005.1
20260503003917 98 295 5.0 6.0 0.00 0.00 0.00 10 1005.2
20260503002916 98 250 2.0 4.0 0.00 0.00 0.00 10 1005.3
20260503001917 98 231 6.0 7.0 0.00 0.00 0.00 10 1005.3
20260503000916 99 259 7.0 8.0 0.00 0.00 0.00 10 1005.4
20260502235917 100 226 5.0 6.0 0.00 0.00 0.00 10 1005.5
20260502234916 99 266 6.0 8.0 0.00 0.00 0.00 10 1005.5
20260502233916 99 215 8.0 11.0 0.00 0.00 0.00 11 1005.6
20260502232917 98 248 6.0 8.0 0.00 0.00 0.00 10 1005.7
20260502231916 98 233 5.0 6.0 0.00 0.00 0.00 10 1005.7
20260502230916 99 259 7.0 10.0 0.00 0.00 0.00 10 1005.7
20260502224916 99 287 7.0 10.0 0.00 0.00 0.00 11 1006.0
20260502223917 99 274 6.0 8.0 0.00 0.00 0.00 11 1006.1
20260502222917 98 239 6.0 8.0 0.00 0.00 0.00 11 1006.3
20260502222017 99 225 8.0 12.0 0.00 0.00 0.00 12 1006.3
20260502221017 98 226 4.0 6.0 0.00 0.00 0.00 12 1006.5
20260502220016 97 288 0.0 2.0 0.00 0.00 0.00 11 1006.7
20260502215017 98 33 3.0 4.0 0.00 0.00 0.00 12 1006.7
20260502214517 97 266 0.0 2.0 0.00 0.00 0.00 11 1006.7
20260502213516 97 28 4.0 6.0 0.00 0.00 0.00 10 1006.9
20260502212517 98 231 0.0 2.0 0.00 0.00 0.00 11 1007.2
20260502211516 96 202 2.0 8.0 0.00 0.00 0.00 11 1007.4
20260502205916 98 36 5.0 7.0 0.00 0.00 0.00 11 1007.6
20260502204917 97 21 2.0 3.0 0.00 0.00 0.00 11 1007.7
20260502204417 97 28 4.0 6.0 0.00 0.00 0.00 10 1007.8
20260502203416 98 17 5.0 7.0 0.00 0.00 0.00 10 1007.9
20260502202417 98 79 1.0 2.0 0.00 0.00 0.00 12 1008.1
20260502201417 95 23 2.0 3.0 0.00 0.00 0.00 11 1008.3
20260502200416 96 329 3.0 5.0 0.00 0.00 0.00 12 1008.4
20260502195417 96 352 1.0 2.0 0.00 0.00 0.00 11 1008.6
20260502194417 95 50 0.0 2.0 0.00 0.00 0.00 11 1008.7
20260502193416 96 148 3.0 6.0 0.00 0.00 0.00 13 1008.8
20260502192417 96 0.0 0.0 0.00 0.00 0.00 13 1008.9
20260502191417 96 0.0 0.0 0.00 0.00 0.00 14 1009.1
20260502190617 96 132 7.0 10.0 0.00 0.00 0.00 15 1009.3
20260502185616 94 96 5.0 8.0 0.00 0.00 0.00 13 1009.4
20260502184617 94 87 7.0 8.0 0.00 0.00 0.00 15 1009.6
20260502183617 93 98 9.0 12.0 0.00 0.00 0.00 15 1009.7
20260502182617 92 54 5.0 6.0 0.00 0.00 0.00 15 1009.8
20260502181617 92 46 7.0 8.0 0.00 0.00 0.00 18 1009.9
20260502180616 91 64 9.0 11.0 0.00 0.00 0.00 15 1010.1
20260502163917 87 13 3.0 5.0 0.00 0.00 0.00 29 1010.5
20260502162917 86 45 1.0 3.0 0.00 0.00 0.00 30 1010.5
20260502161917 85 28 4.0 6.0 0.00 0.00 0.00 28 1010.6
20260502160916 85 31 5.0 8.0 0.00 0.00 0.00 27 1010.6
20260502151917 80 56 0.0 0.0 0.00 0.00 0.00 40 1010.6
20260502150917 79 0.0 0.0 0.00 0.00 0.00 41 1010.6
20260502150617 78 0.0 0.0 0.00 0.00 0.00 42 1010.5
20260502130617 65 0.0 0.0 0.00 0.00 0.00 53 1009.5
20260502123617 64 0.0 0.0 0.00 0.00 0.00 51 1009.0
20260502122617 64 0.0 0.0 0.00 0.00 0.00 55 1009.0
20260502121616 65 0.0 0.0 0.00 0.00 0.00 55 1008.9
20260502120619 65 0.0 0.0 0.00 0.00 0.00 54 1008.9
20260502115616 64 0.0 0.0 0.00 0.00 0.00 57 1008.8
20260502114617 65 0.0 0.0 0.00 0.00 0.00 56 1008.8
20260502113617 65 0.0 0.0 0.00 0.00 0.00 54 1008.8
20260502112616 66 0.0 0.0 0.00 0.00 0.00 53 1008.7
20260502111617 66 0.0 0.0 0.00 0.00 0.00 54 1008.7
20260502110617 67 0.0 0.0 0.00 0.00 0.00 51 1008.7
20260502105617 67 0.0 0.0 0.00 0.00 0.00 51 1008.7
20260502104616 67 0.0 0.0 0.00 0.00 0.00 51 1008.7
20260502103617 67 0.0 0.0 0.00 0.00 0.00 50 1008.7
20260502102617 66 0.0 0.0 0.00 0.00 0.00 51 1008.6
20260502100617 68 0.0 0.0 0.00 0.00 0.00 51 1008.6
20260502090716 70 0.0 0.0 0.00 0.00 0.00 48 1008.9
20260502071517 74 161 4.0 4.0 0.00 0.00 0.00 40 1009.1
20260502071033 74 162 4.0 6.0 0.00 0.00 0.00 40 1009.1
20260502070716 74 155 6.0 8.0 0.00 0.00 0.00 40 1009.1
20260502065717 74 143 5.0 8.0 0.00 0.00 0.00 40 1009.1
20260502064717 74 155 4.0 7.0 0.00 0.00 0.00 40 1009.1
20260502063717 75 159 4.0 7.0 0.00 0.00 0.00 39 1009.1
20260502062717 75 155 6.0 9.0 0.00 0.00 0.00 40 1009.0